Location: Hilton Head Island
(32.2163°N, 80.7526°W)
Time: 03:20:58
(UTC-04:00)

Explorer 7 - Pass Details

Date: 24 February 2026
Orbit: 430 x 542 km, 50.2° (Epoch: 7 March)

Event Time Altitude Azimuth Distance (km) Brightness Sun altitude
Rises 18:31:30 0° 323° (NW) 2,506 10.6 -3.9°
Reaches altitude 10° 18:33:51 10° 336° (NNW) 1,649 9.5 -4.4°
Maximum altitude 18:37:04 27° 35° (NE) 971 7.7 -5.1°
Drops below altitude 10° 18:40:24 10° 95° (E) 1,704 8.7 -5.8°
Enters shadow 18:41:17 - 101° (E) 2,019 9.1 -6.0°
Sets 18:42:52 0° 107° (ESE) 2,608 - -6.3°
